Weather History for Rice Lake, WI

Change the Weather History Date:

Sunday, October 27, 2013

  Actual Average Record
Temperature  
Mean Temperature 40 °F -  
Max Temperature 54 °F 48 °F 68 °F (1998)
Min Temperature 25 °F 34 °F 24 °F (2005)
Degree Days  
Heating Degree Days 26    
Moisture  
Dew Point 28 °F    
Average Humidity 70    
Maximum Humidity 95    
Minimum Humidity 39    
Precipitation  
Precipitation 0.00 in - - ()
Sea Level Pressure  
Sea Level Pressure 29.93 in    
Wind  
Wind Speed 4 mph (WNW)    
Max Wind Speed 17 mph    
Max Gust Speed 26 mph    
Visibility 10 miles    
Events      
Averages and records for this station are not official NWS values.
T = Trace of Precipitation, MM = Missing Value Source: NWS Daily Summary

Daily Weather History Graph

Daily Weather History Graph

Search for Another Location

Airport:

Trip Planner

Search our weather history database for the weather conditions in past years. The results will help you decide how hot, cold, wet, or windy it might be!

Date:

Astronomy

Oct. 27, 2013 Rise Set
Actual Time 7:39 AM CDT 6:01 PM CDT
Civil Twilight 7:09 AM CDT 6:31 PM CDT
Nautical Twilight 6:34 AM CDT 7:06 PM CDT
Astronomical Twilight 6:00 AM CDT 7:40 PM CDT
Moon 12:18 AM CDT (10/27) 2:28 PM CDT (10/27)
Length of Visible Light 11h 22m
Length of Day
10h 21m
Last Quarter, 43% of the Moon is Illuminated
Oct 27
Last Quarter
Nov 3
New
Nov 9
First Quarter
Nov 17
Full
Nov 25
Last Quarter

Hourly Weather History & Observations

Time (CDT) Temp. Windchill Dew Point Humidity Pressure Visibility Wind Dir Wind Speed Gust Speed Precip Events Conditions
12:15 AM 30.2 °F - 27.1 °F 88% 30.01 in 10.0 mi Calm Calm - N/A   Clear
12:35 AM 29.3 °F - 26.4 °F 89% 30.01 in 10.0 mi Calm Calm - N/A   Clear
12:55 AM 29.3 °F - 27.1 °F 92% 30.01 in 10.0 mi Calm Calm - N/A   Clear
1:15 AM 28.6 °F - 26.6 °F 92% 30.00 in 10.0 mi Calm Calm - N/A   Clear
1:35 AM 28.4 °F - 25.7 °F 90% 30.00 in 10.0 mi Calm Calm - N/A   Clear
1:55 AM 28.4 °F - 26.2 °F 92% 29.99 in 10.0 mi Calm Calm - N/A   Clear
2:15 AM 27.9 °F - 25.9 °F 92% 29.98 in 10.0 mi Calm Calm - N/A   Clear
2:35 AM 27.0 °F - 24.8 °F 92% 29.98 in 10.0 mi Calm Calm - N/A   Clear
2:55 AM 28.0 °F - 25.7 °F 91% 29.97 in 10.0 mi Calm Calm - N/A   Clear
3:15 AM 27.9 °F - 25.7 °F 92% 29.97 in 10.0 mi Calm Calm - N/A   Clear
3:35 AM 28.8 °F - 26.6 °F 92% 29.97 in 10.0 mi Calm Calm - N/A   Clear
3:55 AM 29.7 °F - 26.8 °F 89% 29.96 in 10.0 mi Calm Calm - N/A   Clear
4:15 AM 27.0 °F - 24.3 °F 90% 29.95 in 10.0 mi Calm Calm - N/A   Clear
4:35 AM 25.9 °F - 23.7 °F 92% 29.94 in 10.0 mi Calm Calm - N/A   Clear
4:55 AM 26.2 °F - 24.4 °F 93% 29.94 in 10.0 mi Calm Calm - N/A   Clear
5:15 AM 25.7 °F - 23.7 °F 92% 29.94 in 10.0 mi Calm Calm - N/A   Clear
5:35 AM 26.4 °F - 25.2 °F 95% 29.94 in 10.0 mi Calm Calm - N/A   Clear
5:55 AM 27.1 °F - 25.3 °F 93% 29.94 in 10.0 mi Calm Calm - N/A   Clear
6:15 AM 28.4 °F 24.6 °F 25.7 °F 90% 29.93 in 10.0 mi South 3.5 mph - N/A   Clear
6:35 AM 28.6 °F 24.8 °F 26.1 °F 90% 29.92 in 10.0 mi South 3.5 mph - N/A   Clear
6:55 AM 28.4 °F 24.6 °F 25.7 °F 90% 29.91 in 10.0 mi South 3.5 mph - N/A   Clear
7:15 AM 29.3 °F 25.6 °F 25.7 °F 86% 29.90 in 10.0 mi South 3.5 mph - N/A   Clear
7:35 AM 28.6 °F 23.5 °F 24.8 °F 86% 29.89 in 10.0 mi SE 4.6 mph - N/A   Clear
7:55 AM 28.2 °F 22.0 °F 25.7 °F 90% 29.89 in 10.0 mi SSE 5.8 mph - N/A   Clear
8:15 AM 28.9 °F 22.8 °F 25.7 °F 88% 29.89 in 10.0 mi SSE 5.8 mph - N/A   Clear
8:35 AM 29.8 °F 24.9 °F 26.6 °F 88% 29.89 in 10.0 mi SSE 4.6 mph - N/A   Clear
8:55 AM 32.0 °F 28.7 °F 27.9 °F 85% 29.89 in 10.0 mi SSE 3.5 mph - N/A   Clear
9:15 AM 33.3 °F 27.1 °F 28.8 °F 84% 29.88 in 10.0 mi SSE 6.9 mph - N/A   Clear
9:35 AM 34.0 °F 27.2 °F 29.1 °F 82% 29.86 in 10.0 mi SSE 8.1 mph - N/A   Clear
9:55 AM 35.1 °F 29.3 °F 29.7 °F 81% 29.86 in 10.0 mi South 6.9 mph - N/A   Clear
10:15 AM 36.5 °F 31.8 °F 29.8 °F 77% 29.86 in 10.0 mi South 5.8 mph - N/A   Clear
10:35 AM 37.6 °F 31.6 °F 30.0 °F 74% 29.86 in 10.0 mi South 8.1 mph - N/A   Clear
10:55 AM 41.2 °F 35.0 °F 30.4 °F 65% 29.85 in 10.0 mi South 10.4 mph - N/A   Clear
11:15 AM 43.9 °F 37.9 °F 30.0 °F 58% 29.84 in 10.0 mi SSW 11.5 mph - N/A   Clear
11:35 AM 45.5 °F 39.6 °F 29.7 °F 54% 29.83 in 10.0 mi SSW 12.7 mph 18.4 mph N/A   Clear
11:55 AM 46.6 °F - 29.3 °F 51% 29.83 in 10.0 mi SW 13.8 mph - N/A   Clear
12:15 PM 48.6 °F - 29.5 °F 48% 29.83 in 10.0 mi SW 15.0 mph 18.4 mph N/A   Clear
12:35 PM 50.5 °F - 30.0 °F 45% 29.83 in 10.0 mi WSW 9.2 mph - N/A   Clear
12:55 PM 51.3 °F - 28.2 °F 41% 29.82 in 10.0 mi West 13.8 mph 20.7 mph N/A   Clear
1:15 PM 52.3 °F - 29.1 °F 41% 29.82 in 10.0 mi West 11.5 mph - N/A   Clear
1:35 PM 52.7 °F - 28.6 °F 40% 29.81 in 10.0 mi West 10.4 mph - N/A   Clear
1:55 PM 52.7 °F - 29.1 °F 40% 29.81 in 10.0 mi WSW 10.4 mph - N/A   Clear
2:15 PM 52.0 °F - 29.5 °F 42% 29.81 in 10.0 mi WSW 8.1 mph - N/A   Clear
2:35 PM 52.2 °F - 30.0 °F 43% 29.82 in 10.0 mi West 8.1 mph - N/A   Clear
2:55 PM 53.2 °F - 29.8 °F 41% 29.82 in 10.0 mi WSW 9.2 mph - N/A   Clear
3:15 PM 53.8 °F - 29.7 °F 40% 29.82 in 10.0 mi West 5.8 mph - N/A   Clear
3:35 PM 54.0 °F - 29.7 °F 39% 29.82 in 10.0 mi WNW 6.9 mph - N/A   Clear
3:55 PM 52.7 °F - 30.2 °F 42% 29.84 in 10.0 mi WNW 5.8 mph - N/A   Clear
4:15 PM 54.0 °F - 30.9 °F 41% 29.85 in 10.0 mi NW 6.9 mph - N/A   Clear
4:35 PM 53.6 °F - 30.0 °F 41% 29.86 in 10.0 mi NW 10.4 mph - N/A   Mostly Cloudy
4:55 PM 51.8 °F - 30.9 °F 45% 29.87 in 10.0 mi NNW 9.2 mph - N/A   Overcast
5:15 PM 50.2 °F - 30.9 °F 48% 29.89 in 10.0 mi North 11.5 mph 17.3 mph N/A   Overcast
5:35 PM 48.7 °F - 30.6 °F 50% 29.90 in 10.0 mi North 9.2 mph - N/A   Overcast
5:55 PM 47.5 °F - 30.2 °F 51% 29.92 in 10.0 mi NNW 6.9 mph - N/A   Mostly Cloudy
6:15 PM 45.9 °F 43.6 °F 30.6 °F 55% 29.93 in 10.0 mi NNW 4.6 mph - N/A   Mostly Cloudy
6:35 PM 44.8 °F 42.4 °F 30.7 °F 58% 29.94 in 10.0 mi NNW 4.6 mph - N/A   Scattered Clouds
6:55 PM 42.1 °F - 30.7 °F 64% 29.95 in 10.0 mi Calm Calm - N/A   Scattered Clouds
7:15 PM 39.0 °F 36.8 °F 30.9 °F 73% 29.97 in 10.0 mi NNW 3.5 mph - N/A   Overcast
7:35 PM 42.8 °F 38.6 °F 31.3 °F 64% 29.98 in 10.0 mi NNW 6.9 mph - N/A   Overcast
7:55 PM 43.5 °F 39.4 °F 32.0 °F 64% 30.00 in 10.0 mi North 6.9 mph - N/A   Overcast
8:15 PM 44.6 °F 37.4 °F 31.8 °F 61% 30.01 in 10.0 mi North 16.1 mph 20.7 mph N/A   Overcast
8:35 PM 43.3 °F 36.8 °F 30.9 °F 62% 30.03 in 10.0 mi North 12.7 mph 26.5 mph N/A   Overcast
8:55 PM 43.0 °F 35.1 °F 30.7 °F 62% 30.04 in 10.0 mi North 17.3 mph 23.0 mph N/A   Overcast
9:15 PM 42.3 °F 35.9 °F 30.9 °F 64% 30.06 in 10.0 mi North 11.5 mph 19.6 mph N/A   Overcast
9:35 PM 42.1 °F 35.7 °F 31.3 °F 66% 30.07 in 10.0 mi North 11.5 mph - N/A   Overcast
9:55 PM 41.9 °F 35.4 °F 31.1 °F 66% 30.09 in 10.0 mi North 11.5 mph 19.6 mph N/A   Overcast
10:15 PM 41.5 °F 33.2 °F 30.9 °F 66% 30.10 in 10.0 mi North 17.3 mph - N/A   Overcast
10:35 PM 41.4 °F 34.0 °F 30.4 °F 65% 30.11 in 10.0 mi NNE 13.8 mph - N/A   Overcast
10:55 PM 39.7 °F 31.5 °F 28.9 °F 65% 30.13 in 10.0 mi NNE 15.0 mph 21.9 mph N/A   Mostly Cloudy
11:15 PM 38.7 °F 30.5 °F 29.1 °F 69% 30.14 in 10.0 mi NNE 13.8 mph - N/A   Scattered Clouds
11:35 PM 37.6 °F 30.0 °F 29.7 °F 73% 30.15 in 10.0 mi NNE 11.5 mph - N/A   Scattered Clouds
11:55 PM 37.6 °F 30.5 °F 30.2 °F 75% 30.16 in 10.0 mi North 10.4 mph - N/A   Scattered Clouds